STARLINK-32529 (62139 NORAD) Tracking and Keplerian Element Data

This shows tracking and keplerian element data for the satellite.

Feedback or suggestion? Click here.




ElementValue
Catalog62139
NameSTARLINK-32529
Epoch Orbit1121
Epoch Day33.9740111
Epoch Year2025
RAAN262.0084
Inclination43.0022
Eccentricity0.0001777
Argument of Perigee270.1111
Mean Anonmoly89.9542
Mean Motion15.40691265
Decay Rate8.68E-06
L11 62139U 24224A 25033.97401110 .00000868 00000+0 28064-4 0 9996
L22 62139 43.0022 262.0084 0001777 270.1111 89.9542 15.40691265 11212



Live tracking and technical data element details for STARLINK-32529 (NORAD 62139). STARLINK-32529 can be tracked NOW for your location showing map with azimuth and elevation plus other details from your city location.







IsCatalogInMostPopularTable: catalog: 62139, numindb: 15
Update: records affected: 1



GetName: 62139 STARLINK-32529

Hit Count: updated at: Mon, 19 May 2025 02:41:54 GMT